Location: Pescara
(42.4670°N, 14.2170°E)
Time: 03:59:24
(UTC+01:00)

ISS - Visible Passes

Search period start: 23 January 2019 00:00
Search period end: 02 February 2019 00:00
Orbit: 404 x 411 km, 51.6° (Epoch: 23 January)

Date Brightness Start Highest point End Pass type
(mag) Time Alt. Az. Time Alt. Az. Time Alt. Az.
23 Jan -3.8 18:37:20 10° SW 18:40:35 67° SE 18:41:04 56° E visible
24 Jan -2.9 17:46:17 10° SSW 17:49:19 35° SE 17:52:03 12° ENE visible
24 Jan -1.7 19:22:48 10° W 19:24:46 27° WNW 19:24:46 27° WNW visible
25 Jan -3.3 18:31:10 10° WSW 18:34:25 53° NNW 18:35:40 31° NNE visible
26 Jan -3.8 17:39:43 10° SW 17:43:01 88° SE 17:46:19 10° ENE visible
26 Jan -1.6 19:17:12 10° WNW 19:19:13 21° NW 19:19:13 21° NW visible
27 Jan -2.3 18:25:23 10° W 18:28:20 29° NNW 18:30:00 19° NNE visible
28 Jan -1.5 19:11:38 10° NW 19:13:26 17° NNW 19:13:26 17° NNW visible
29 Jan -1.8 18:19:45 10° WNW 18:22:18 20° NNW 18:24:08 14° NNE visible
30 Jan -1.5 19:05:49 10° NW 19:07:31 16° N 19:07:31 16° N visible
31 Jan -1.7 18:14:04 10° NW 18:16:20 17° N 18:18:11 12° NNE visible
01 Feb -1.7 18:59:38 10° NW 19:01:34 18° N 19:01:34 18° N visible
